DELTA 1 DEB, 10661

Orbit data source: Space-Track

DELTA 1 DEB, 10661 is space debris in SSO originally from a launch on Thu, 29 Jul 1976 UTC launched from the Air Force Western Test Range (AFWTR). Debris objects in space refer to the collection of defunct objects orbiting the Earth. Examples of debris include non-operational satellites, rocket bodies, and fragments generated from explosions, collisions, or faulty payload assembly.

Loading next visibility...
Identifier
10661, 1976-077X
Orbit
SSO
Country
Flag of USUS
Related business
Manufacturer
Unknown
Mission
Spacecraft
Bus & Motor
Unknown
Mass
Unknown
Launch date (UTC)
1976-07-29 (49 years ago)
Launch vehicle
Unknown
Launch site
Air Force Western Test Range (AFWTR)
Object type
Payload
Rocket body
Debris
Shape & HBR
Unknown shape, 0.1 m
Radar Cross Section
Small (<0.1 m²)

Expand to show TLE details & history
Last TLE update: 21 hours ago

TLE from 21 hours ago
0 DELTA 1 DEB
1 10661U 76077X   25292.11209676  .00009917  00000-0  18505-1 0  9999
2 10661 101.1908 238.8226 0120742 236.6882 254.5761 13.36543068302574
Epoch: 2025-10-19T02:41Z
TLE epoch observation values (Epoch: 2025-10-19T02:41:25.160Z)
Latitude
48.87611°
Longitude
3.66328°
Altitude
1,154.817 km
Speed
7.268 km/s
True Right ascension
04h 47m 24s
True Declination
48° 42' 53"
Sunlit
Object was in full shadow at epoch
Visualization orbit readout
Latitude
Unknown
Longitude
Unknown
Altitude
Unknown
Speed
Unknown
Apparent Right ascension
Unknown
Apparent Declination
Unknown
Sunlit
N/A
Visualization observer readout
Local Sidereal Time
18:44:24
Azimuth
Unknown
Elevation
Unknown
Doppler factor
Unknown
Orbital elements
Apogee altitude
1,210.114 km
Perigee altitude
1,029.056 km
Semi-major axis
7,497.722 km
Eccentricity
0.01207
Inclination
101.1908°
RAAN
238.8226°
Arg. of periapsis
236.6882°
True anomaly
253.24778°
Mean anomaly
254.5761°
Eccentric anomaly
253.91139°
Mean motion
3.3431 °/min
Orbital period
107.68 mins
BSTAR
0.018505
Loading maneuver chart data...
Computing Atmospheric mass density...
Loading historical data...
Loading historical data...
Loading historical data...
Loading historical data...
Loading historical data...
Loading historical data...
Loading historical data...

Documentation

Showing up to 5 results
|